This is the latest recevied weather packets stored in our database for station/object W5ADC. If no packets are shown the sender has not sent any weather packets the latest 1 day(s).
| Time | Temp. | Humidity | Pressure | Rain* | Wind** | Luminosity | Snow |
|---|---|---|---|---|---|---|---|
| 1777980074 | 21.67° C | 86% | 1000 hPa | 0 mm | 2.24 m/s, 67° | 0 W/m² | - |
| 1777979768 | 21.67° C | 86% | 1000 hPa | 0 mm | 2.68 m/s, 138° | 0 W/m² | - |
| 1777979464 | 22.22° C | 86% | 1000.2 hPa | 0 mm | 1.79 m/s, 184° | 0 W/m² | - |
| 1777979161 | 22.22° C | 84% | 1000 hPa | 0 mm | 2.68 m/s, 191° | 0 W/m² | - |
| 1777978858 | 21.67° C | 86% | 999.9 hPa | 0 mm | 2.24 m/s, 205° | 0 W/m² | - |
| 1777978554 | 21.67° C | 87% | 999.8 hPa | 0 mm | 0.89 m/s, 200° | 0 W/m² | - |
| 1777978250 | 21.67° C | 87% | 999.8 hPa | 0 mm | 2.24 m/s, 258° | 0 W/m² | - |
| 1777977947 | 21.67° C | 87% | 999.9 hPa | 0 mm | 1.79 m/s, 198° | 0 W/m² | - |
| 1777977645 | 21.67° C | 87% | 1000.1 hPa | 0 mm | 2.24 m/s, 171° | 0 W/m² | - |
| 1777977341 | 21.67° C | 86% | 1000.1 hPa | 0 mm | 0.89 m/s, 178° | 0 W/m² | - |
| 1777977039 | 21.67° C | 86% | 1000.1 hPa | 0 mm | 3.58 m/s, 161° | 0 W/m² | - |
| 1777976736 | 21.67° C | 86% | 1000.1 hPa | 0 mm | 1.79 m/s, 201° | 0 W/m² | - |
| 1777976433 | 21.67° C | 86% | 1000.1 hPa | 0 mm | 1.79 m/s, 142° | 0 W/m² | - |
| 1777976132 | 21.67° C | 86% | 1000.1 hPa | 0 mm | 1.34 m/s, 172° | 0 W/m² | - |
| 1777975828 | 21.67° C | 86% | 1000.2 hPa | 0 mm | 1.34 m/s, 210° | 0 W/m² | - |
| 1777975525 | 21.67° C | 86% | 1000.2 hPa | 0 mm | 1.34 m/s, 205° | 0 W/m² | - |
| 1777975222 | 22.22° C | 86% | 1000.2 hPa | 0 mm | 0.89 m/s, 143° | 0 W/m² | - |
| 1777974918 | 22.22° C | 85% | 1000.1 hPa | 0 mm | 2.68 m/s, 173° | 0 W/m² | - |
| 1777974614 | 22.22° C | 86% | 1000.2 hPa | 0 mm | 1.79 m/s, 178° | 0 W/m² | - |
| 1777974311 | 21.67° C | 86% | 1000 hPa | 0 mm | 4.47 m/s, 191° | 0 W/m² | - |
| 1777974007 | 22.22° C | 85% | 1000.4 hPa | 0 mm | 2.24 m/s, 176° | 0 W/m² | - |
| 1777973703 | 21.67° C | 86% | 1000.2 hPa | 0 mm | 1.79 m/s, 184° | 0 W/m² | - |
| 1777973401 | 22.22° C | 86% | 1000.3 hPa | 0 mm | 1.34 m/s, 194° | 0 W/m² | - |
| 1777973098 | 21.67° C | 86% | 1000.4 hPa | 0 mm | 1.34 m/s, 167° | 0 W/m² | - |
| 1777972796 | 21.67° C | 86% | 1000.5 hPa | 0 mm | 2.24 m/s, 187° | 0 W/m² | - |
* Rain latest hour (hover to see other rain measurements)
** Current wind speed in m/s (hover to see current wind gust speed)